TimeEDT,TemperatureF,Dew PointF,Humidity,Sea Level PressureIn,VisibilityMPH,Wind Direction,Wind SpeedMPH,Gust SpeedMPH,PrecipitationIn,Events,Conditions,WindDirDegrees,DateUTC
12:54 AM,66.9,66.0,97,30.06,9.0,Calm,Calm,-,N/A,,Overcast,0,2013-07-07 04:54:00
1:54 AM,66.9,64.9,93,30.05,10.0,SW,3.5,-,N/A,,Mostly Cloudy,230,2013-07-07 05:54:00
2:54 AM,66.9,64.9,93,30.03,10.0,SSW,4.6,-,N/A,,Mostly Cloudy,210,2013-07-07 06:54:00
3:54 AM,66.9,64.9,93,30.03,10.0,South,4.6,-,N/A,,Clear,170,2013-07-07 07:54:00
4:54 AM,64.9,64.0,97,30.02,9.0,Calm,Calm,-,N/A,,Clear,0,2013-07-07 08:54:00
5:27 AM,62.6,62.6,100,30.04,1.8,Calm,Calm,-,N/A,,Partly Cloudy,0,2013-07-07 09:27:00
5:36 AM,64.4,62.6,94,30.04,2.0,Calm,Calm,-,N/A,,Mostly Cloudy,0,2013-07-07 09:36:00
5:44 AM,64.4,64.4,100,30.05,6.0,South,3.5,-,N/A,,Mostly Cloudy,190,2013-07-07 09:44:00
5:54 AM,64.0,64.0,100,30.04,7.0,South,3.5,-,N/A,,Overcast,180,2013-07-07 09:54:00
6:31 AM,64.4,64.4,100,30.05,8.0,Calm,Calm,-,N/A,,Partly Cloudy,0,2013-07-07 10:31:00
6:54 AM,64.0,63.0,96,30.05,5.0,Calm,Calm,-,N/A,,Clear,0,2013-07-07 10:54:00
7:35 AM,64.4,64.4,100,30.06,7.0,Calm,Calm,-,N/A,,Mostly Cloudy,0,2013-07-07 11:35:00
7:54 AM,66.0,64.9,96,30.06,7.0,Calm,Calm,-,N/A,,Mostly Cloudy,0,2013-07-07 11:54:00
8:54 AM,68.0,66.0,93,30.06,6.0,SSW,5.8,-,N/A,,Overcast,210,2013-07-07 12:54:00
9:34 AM,69.8,66.2,88,30.09,8.0,SSW,3.5,-,N/A,,Partly Cloudy,210,2013-07-07 13:34:00
9:54 AM,69.1,66.0,90,30.08,10.0,SW,4.6,-,N/A,,Clear,220,2013-07-07 13:54:00
10:54 AM,71.1,66.0,84,30.08,10.0,SSW,8.1,-,N/A,,Partly Cloudy,210,2013-07-07 14:54:00
11:54 AM,72.0,66.9,84,30.07,10.0,South,6.9,-,N/A,,Clear,190,2013-07-07 15:54:00
12:54 PM,73.9,66.9,79,30.06,10.0,SW,8.1,-,N/A,,Clear,220,2013-07-07 16:54:00
1:54 PM,77.0,68.0,74,30.06,10.0,SSW,9.2,-,N/A,,Clear,200,2013-07-07 17:54:00
2:54 PM,80.1,69.1,69,30.04,10.0,South,5.8,-,N/A,,Clear,190,2013-07-07 18:54:00
3:54 PM,82.0,69.1,65,30.03,10.0,SW,8.1,-,N/A,,Partly Cloudy,220,2013-07-07 19:54:00
4:54 PM,82.0,69.1,65,30.01,10.0,South,8.1,-,N/A,,Partly Cloudy,190,2013-07-07 20:54:00
5:54 PM,82.0,69.1,65,30.00,10.0,SSW,5.8,-,N/A,,Clear,200,2013-07-07 21:54:00
6:54 PM,82.0,69.1,65,29.99,10.0,SSW,8.1,-,N/A,,Clear,200,2013-07-07 22:54:00
7:54 PM,81.0,69.1,67,30.01,10.0,SW,6.9,-,N/A,,Clear,220,2013-07-07 23:54:00
8:54 PM,78.1,69.1,74,30.01,10.0,SSW,3.5,-,N/A,,Clear,200,2013-07-08 00:54:00
9:54 PM,75.0,69.1,82,30.02,10.0,SSE,4.6,-,N/A,,Clear,160,2013-07-08 01:54:00
10:54 PM,75.0,68.0,79,30.04,10.0,South,4.6,-,N/A,,Clear,180,2013-07-08 02:54:00
11:54 PM,73.9,66.9,79,30.04,10.0,SSW,3.5,-,N/A,,Clear,200,2013-07-08 03:54:00